Simultaneous Nadir Overpasses (SNOs) Predictions

Prediction of SNOs between GOES-15 and TERRA Satellite Orbit:

Table of predicted SNOs for the next 14.0 days since TLE Epoch: 12/22/2012
Index Date Time (GOES-15) GOES-15 Lat,Lon TERRA Lat,Lon Distance(km) Time Diff (sec)
1 12/22/2012 19:33:36 -0.05,-135.49 -0.03,-135.60 12.84 80
2 12/24/2012 19:18:50 -0.05,-135.49 -0.68,-132.67 321.09 80
3 12/25/2012 07:42:55 0.04,-135.46 -0.47,-137.86 271.88 80
4 12/27/2012 07:28:11 0.04,-135.46 0.15,-134.93 59.89 80
5 12/29/2012 07:16:09 0.04,-135.44 0.77,-132.01 390.28 80
6 12/29/2012 19:40:07 -0.02,-135.45 0.35,-137.17 195.51 80
7 12/31/2012 19:25:28 -0.02,-135.44 -0.29,-134.27 133.25 80
8 01/01/2013 07:49:35 0.01,-135.42 -0.85,-139.46 460.17 80
9 01/02/2013 19:16:10
